TimeAEST,TemperatureF,Dew PointF,Humidity,Sea Level PressureIn,VisibilityMPH,Wind Direction,Wind SpeedMPH,Gust SpeedMPH,PrecipitationIn,Events,Conditions,WindDirDegrees,DateUTC
12:00 AM,77,74,88,29.91,16,Calm,Calm,,,,Partly Cloudy,,2011-11-24 14:00:00
12:00 AM,77.0,73.4,89,29.89,6.2,Calm,Calm,-,N/A,,Scattered Clouds,0,2011-11-24 14:00:00
12:30 AM,75.2,75.2,100,29.89,6.2,Calm,Calm,-,N/A,,Scattered Clouds,0,2011-11-24 14:30:00
12:38 AM,77.0,75.2,94,29.89,2.5,Calm,Calm,-,N/A,Rain,Light Rain Showers,0,2011-11-24 14:38:00
12:58 AM,77.0,75.2,94,29.89,6.2,SE,2.3,-,N/A,,Mostly Cloudy,130,2011-11-24 14:58:00
1:00 AM,77,75,93,29.89,,ESE,3.5,,,,,120,2011-11-24 15:00:00
1:00 AM,77.0,75.2,94,29.89,6.2,ESE,3.5,-,N/A,,Mostly Cloudy,120,2011-11-24 15:00:00
1:30 AM,77.0,75.2,94,29.86,6.2,SSE,1.2,-,N/A,,Scattered Clouds,150,2011-11-24 15:30:00
2:00 AM,75.2,75.2,100,29.86,6.2,Calm,Calm,-,N/A,,Scattered Clouds,0,2011-11-24 16:00:00
2:30 AM,77.0,75.2,94,29.86,6.2,SW,2.3,-,N/A,,Mostly Cloudy,230,2011-11-24 16:30:00
3:00 AM,76,75,97,29.86,12,SE,8.1,,,,Mostly Cloudy,140,2011-11-24 17:00:00
3:00 AM,77.0,75.2,94,29.86,6.2,SE,8.1,-,N/A,,Scattered Clouds,140,2011-11-24 17:00:00
3:30 AM,77.0,75.2,94,29.86,6.2,SE,6.9,-,N/A,,Mostly Cloudy,140,2011-11-24 17:30:00
3:52 AM,77.0,75.2,94,29.86,3.1,SSE,5.8,-,N/A,Rain,Light Rain Showers,150,2011-11-24 17:52:00
4:00 AM,77,76,94,29.88,,SSE,6.9,,,,,150,2011-11-24 18:00:00
4:00 AM,77.0,75.2,94,29.86,5.0,SSE,6.9,-,N/A,,Mostly Cloudy,150,2011-11-24 18:00:00
4:30 AM,78.8,75.2,89,29.86,6.2,SSE,5.8,-,N/A,,Scattered Clouds,160,2011-11-24 18:30:00
5:00 AM,77.0,75.2,94,29.86,6.2,SE,5.8,-,N/A,,Scattered Clouds,130,2011-11-24 19:00:00
5:30 AM,77.0,75.2,94,29.89,6.2,SE,8.1,-,N/A,,Scattered Clouds,140,2011-11-24 19:30:00
6:00 AM,78,75,89,29.89,12,SE,6.9,,,,Partly Cloudy,130,2011-11-24 20:00:00
6:00 AM,77.0,75.2,94,29.89,6.2,SE,6.9,-,N/A,,Mostly Cloudy,130,2011-11-24 20:00:00
6:30 AM,77.0,75.2,94,29.89,6.2,SE,8.1,-,N/A,,Scattered Clouds,130,2011-11-24 20:30:00
7:00 AM,78,76,92,29.91,,ESE,8.1,,,,,120,2011-11-24 21:00:00
7:00 AM,78.8,77.0,94,29.89,5.6,ESE,8.1,-,N/A,Rain,Light Rain Showers,120,2011-11-24 21:00:00
7:12 AM,78.8,77.0,94,29.89,6.2,SE,9.2,-,N/A,Rain,Light Rain Showers,130,2011-11-24 21:12:00
7:30 AM,80.6,75.2,84,29.92,6.2,SSE,8.1,-,N/A,,Mostly Cloudy,160,2011-11-24 21:30:00
8:00 AM,84.2,77.0,79,29.92,6.2,SSE,8.1,-,N/A,,Mostly Cloudy,150,2011-11-24 22:00:00
8:30 AM,84.2,75.2,74,29.92,6.2,SSE,8.1,-,N/A,,Mostly Cloudy,150,2011-11-24 22:30:00
9:00 AM,85,76,68,29.93,9,SE,6.9,,,,Haze,130,2011-11-24 23:00:00
9:00 AM,84.2,75.2,74,29.92,6.2,SE,6.9,-,N/A,,Partly Cloudy,130,2011-11-24 23:00:00
9:30 AM,86.0,77.0,74,29.92,6.2,SSE,6.9,-,N/A,,Partly Cloudy,150,2011-11-24 23:30:00
10:00 AM,86,75,64,29.93,,East,8.1,,,,,80,2011-11-25 00:00:00
10:00 AM,86.0,75.2,70,29.92,6.2,East,8.1,-,N/A,,Scattered Clouds,80,2011-11-25 00:00:00
10:30 AM,86.0,75.2,70,29.92,6.2,East,9.2,-,N/A,,Scattered Clouds,100,2011-11-25 00:30:00
11:00 AM,86.0,75.2,70,29.92,6.2,East,11.5,-,N/A,,Scattered Clouds,80,2011-11-25 01:00:00
11:30 AM,87.8,75.2,66,29.89,6.2,ENE,12.7,-,N/A,,Scattered Clouds,70,2011-11-25 01:30:00
12:00 PM,87,74,59,29.90,9,ENE,11.5,,,,Haze,70,2011-11-25 02:00:00
12:00 PM,87.8,75.2,66,29.89,6.2,ENE,11.5,-,N/A,,Partly Cloudy,70,2011-11-25 02:00:00
12:30 PM,87.8,77.0,70,29.89,6.2,ENE,12.7,-,N/A,,Partly Cloudy,60,2011-11-25 02:30:00
1:00 PM,87,75,60,29.88,,ENE,11.5,,,,,60,2011-11-25 03:00:00
1:00 PM,87.8,75.2,66,29.86,6.2,ENE,11.5,-,N/A,,Partly Cloudy,60,2011-11-25 03:00:00
1:30 PM,87.8,75.2,66,29.86,6.2,NE,11.5,-,N/A,,Partly Cloudy,50,2011-11-25 03:30:00
2:00 PM,87.8,75.2,66,29.83,6.2,ENE,12.7,-,N/A,,Partly Cloudy,60,2011-11-25 04:00:00
2:30 PM,87.8,75.2,66,29.83,6.2,East,13.8,-,N/A,,Partly Cloudy,80,2011-11-25 04:30:00
3:00 PM,88,75,58,29.83,7,East,13.8,,,,Haze,90,2011-11-25 05:00:00
3:00 PM,87.8,75.2,66,29.83,6.2,East,13.8,-,N/A,,Partly Cloudy,90,2011-11-25 05:00:00
3:30 PM,86.0,73.4,66,29.83,6.2,East,12.7,-,N/A,,Scattered Clouds,90,2011-11-25 05:30:00
4:00 PM,86,74,59,29.83,,East,13.8,,,,,90,2011-11-25 06:00:00
4:00 PM,86.0,73.4,66,29.80,6.2,East,13.8,-,N/A,Rain,Light Rain Showers,90,2011-11-25 06:00:00
4:30 PM,84.2,73.4,70,29.83,6.2,East,12.7,-,N/A,,Scattered Clouds,90,2011-11-25 06:30:00
5:00 PM,86.0,73.4,66,29.83,6.2,East,11.5,-,N/A,,Scattered Clouds,90,2011-11-25 07:00:00
5:30 PM,84.2,73.4,70,29.83,6.2,East,12.7,-,N/A,,Scattered Clouds,90,2011-11-25 07:30:00
6:00 PM,83,74,68,29.84,,East,9.2,,,,,100,2011-11-25 08:00:00
6:00 PM,82.4,73.4,74,29.83,6.2,East,9.2,-,N/A,,Partly Cloudy,100,2011-11-25 08:00:00
6:30 PM,82.4,73.4,74,29.83,6.2,ESE,8.1,-,N/A,,Partly Cloudy,120,2011-11-25 08:30:00
7:00 PM,82.4,73.4,74,29.83,6.2,SE,10.4,-,N/A,,Scattered Clouds,130,2011-11-25 09:00:00
7:30 PM,82.4,73.4,74,29.86,6.2,SE,9.2,-,N/A,,Partly Cloudy,140,2011-11-25 09:30:00
8:00 PM,80.6,73.4,79,29.86,6.2,South,6.9,-,N/A,,Partly Cloudy,170,2011-11-25 10:00:00
8:30 PM,80.6,75.2,84,29.86,6.2,South,6.9,-,N/A,,Scattered Clouds,170,2011-11-25 10:30:00
9:00 PM,80.6,75.2,84,29.86,6.2,South,6.9,-,N/A,,Scattered Clouds,180,2011-11-25 11:00:00
9:30 PM,80.6,75.2,84,29.89,6.2,SSE,5.8,-,N/A,Rain,Light Rain Showers,160,2011-11-25 11:30:00
10:00 PM,80,76,83,29.90,,SSE,5.8,,,,,160,2011-11-25 12:00:00
10:00 PM,80.6,75.2,84,29.89,5.0,SSE,5.8,-,N/A,Rain,Light Rain Showers,160,2011-11-25 12:00:00
10:30 PM,78.8,75.2,89,29.89,6.2,SSE,8.1,-,N/A,,Scattered Clouds,160,2011-11-25 12:30:00
11:00 PM,78.8,75.2,89,29.89,6.2,South,6.9,-,N/A,,Scattered Clouds,180,2011-11-25 13:00:00
11:30 PM,78.8,75.2,89,29.89,6.2,SSE,4.6,-,N/A,,Partly Cloudy,150,2011-11-25 13:30:00